Location: Donald C. Martin Observatory
(38.3885°N, 82.3916°W)
Time: 03:12:47
(UTC-05:00)

Daily predictions for brighter satellites

Satellite Brightness Start Highest point End
(mag) Time Altitude Azimuth Time Altitude Azimuth Time Altitude Azimuth
CENTAUR R/B 3.8 04:11:31 35° ENE 04:11:31 35° ENE 04:15:32 10° NE
Cosmos 2333 Rocket 4.4 04:56:53 12° N 04:56:53 12° N 04:57:22 10° N
Meteor 1-14 Rocket 4.4 04:48:22 10° S 04:54:00 68° E 04:59:34 10° NNE
Cosmos 2297 4.0 04:54:46 59° NE 04:55:19 62° ENE 05:00:55 10° SSE
DELTA 2 R/B (1) 3.8 05:01:35 63° SSE 05:01:35 63° SSE 05:06:30 10° ESE
Cosmos 2278 Rocket 3.4 05:14:02 27° SSW 05:14:02 27° SSW 05:16:48 10° S
Cosmos 923 Rocket 4.5 05:13:21 48° N 05:13:21 48° N 05:17:10 10° NNE
Meteor 1-25 Rocket 4.5 05:11:31 10° S 05:17:19 72° E 05:23:08 10° NNE
SL-16 R/B 2.0 05:17:23 69° W 05:17:46 72° WNW 05:23:27 10° NNE
Cosmos 2184 Rocket 4.1 05:19:06 10° S 05:25:12 72° E 05:31:23 10° N
Cosmos 292 Rocket 3.6 05:23:41 38° SSW 05:25:33 85° WNW 05:30:25 10° NNE
Cosmos 1812 2.9 05:28:27 62° NE 05:28:53 70° E 05:32:44 10° SSE
Cosmos 1346 Rocket 4.0 05:28:50 16° NNE 05:31:38 40° ENE 05:35:19 10° SSE
GPS 2-05 Rocket1 3.5 05:32:52 52° SSE 05:32:52 52° SSE 05:36:04 10° E
Timation 1 Rocket 4.2 05:30:47 41° NW 05:32:56 71° WSW 05:38:54 10° SSE
Iridium 2 3.7 05:30:13 10° S 05:34:00 81° E 05:35:36 33° N
USA 215 3.3 05:31:19 10° NE 05:37:43 60° NW 05:40:47 32° WSW
Cosmos 1680 Rocket 3.5 05:38:54 38° WSW 05:40:29 52° WNW 05:45:36 10° N
SL-08 ROCKET BODY 4.2 05:34:53 10° S 05:40:53 80° W 05:46:49 10° N
SKYMED 2 3.7 05:39:40 10° SSE 05:43:59 76° ENE 05:47:41 14° N
Cosmos 2151 Rocket 3.5 05:40:01 10° SSW 05:44:29 66° W 05:48:58 10° N
Cosmos 2181 Rocket 4.3 05:42:27 29° NW 05:45:08 42° W 05:51:03 10° SSW
TIMED 4.5 05:47:33 46° NW 05:48:33 60° WSW 05:52:49 10° S
Cosmos 2237 Rocket 4.1 05:52:17 13° NNW 05:52:17 13° NNW 05:53:21 10° N
Radarsat Rocket 4.5 05:43:55 10° NNE 05:50:57 85° WNW 05:58:56 10° SSW
Meteor 1-28 Rocket 4.2 05:50:31 10° SSE 05:54:08 47° ENE 05:57:49 10° N
CZ-3 R/B 3.6 05:46:37 10° SW 05:55:18 22° S 05:59:11 10° SE
Cosmos 1633 3.6 05:53:03 10° SSE 05:56:34 47° E 06:00:05 10° NNE
Cosmos 2112 Rocket 4.3 05:54:29 10° SW 05:59:24 41° WNW 06:04:20 10° N
CENTAUR R/B 3.3 05:58:46 27° WNW 06:00:07 29° NW 06:06:00 10° NNE
NOAA 6 4.1 05:55:35 10° N 06:00:33 51° WNW 06:05:29 10° SSW
Abrixas rocket 4.0 05:58:21 10° SSW 06:01:24 33° SE 06:04:28 10° ENE
Cosmos 1610 Rocket 4.4 05:58:23 10° S 06:04:32 78° W 06:10:48 10° N
Tiangong 2 1.7 06:05:56 36° NNW 06:06:20 38° N 06:09:20 10° ENE
Cosmos 1536 Rocket 3.8 06:06:16 15° NNW 06:09:45 47° W 06:13:57 10° SSW
Gbstr 26 Del rocket 3.7 06:08:43 27° W 06:10:22 36° SW 06:14:06 10° SSE
CSL-04 Debris 4.5 06:05:36 10° NNE 06:11:04 71° ESE 06:16:31 10° S
CSL-04 Rocket 3.8 06:05:48 10° NNE 06:11:22 84° ESE 06:16:53 10° SSW
CZ-2C R/B 4.4 06:07:00 10° NNE 06:11:39 33° E 06:16:11 10° SSE
Cosmos 1238 Rocket 4.0 06:08:45 18° NW 06:11:48 37° W 06:16:58 10° SSW
Cosmos 1603 3.6 06:09:33 10° SSW 06:15:13 66° WNW 06:20:53 10° NNE
Cosmos 2369 Rocket 3.2 06:14:27 10° N 06:19:58 46° ENE 06:25:24 10° SE
Okean 1 Rocket 3.0 06:22:47 10° SSW 06:27:09 61° W 06:31:31 10° N
Cosmos 1025 Rocket 3.8 06:23:10 10° N 06:27:30 55° E 06:31:46 10° SSE
PSLV R/B 3.3 06:29:19 20° WNW 06:31:32 69° NNE 06:34:53 10° E
COSMO-SKYMED 1 3.4 06:28:20 10° SSW 06:32:07 29° W 06:35:57 10° NW
Lacrosse 5 1.8 06:28:12 10° SW 06:33:19 84° NW 06:38:27 10° NE
Cosmos 921 Rocket 4.0 06:31:59 13° NW 06:35:16 28° W 06:39:07 10° SSW
Kosmos-1675 3.6 06:32:52 10° SSW 06:35:20 89° WNW 06:44:03 10° NNE
PAYLOAD A 4.2 06:30:27 10° NNE 06:35:50 85° ESE 06:41:16 10° SSW
Okean 1-7 Rocket 3.5 06:32:16 10° NNW 06:36:39 70° W 06:41:00 10° S
Nadezhda 3 Rocket 4.1 06:32:15 10° NNW 06:38:33 66° W 06:44:49 10° S
SPOT 3 Rocket 4.4 06:34:00 10° NNE 06:39:04 56° E 06:44:06 10° S
Cosmos 1943 3.2 06:36:51 10° SSW 06:42:28 87° WNW 06:48:09 10° NNE
Cosmos 2056 Rocket 3.7 06:38:25 10° NNW 06:43:24 50° WSW 06:48:18 10° S
USA 129 2.6 06:45:40 10° SSW 06:47:21 26° W 06:49:06 11° NW
USA 229 DEB 4.3 06:41:16 10° SSW 06:48:01 63° ESE 06:54:52 10° NE
USA 229 4.4 06:41:25 10° SSW 06:48:08 62° ESE 06:54:59 10° NE
Cosmos 44 Rocket 3.5 06:46:44 10° SW 06:51:48 54° WNW 06:56:50 10° NNE
Meteor 1-19 Rocket 4.5 06:47:57 10° NNW 06:53:36 52° W 06:59:10 10° SSW
Cosmos 2341 Rocket 4.1 06:47:41 10° SSW 06:53:53 57° W 07:00:04 10° N
Meteor 1-11 Rocket 4.1 06:49:06 10° SSW 06:54:42 45° WNW 07:00:13 10° N
IDEFIX/ARIANE 42P 2.7 06:51:15 10° NNE 06:56:28 85° E 07:01:40 10° SSW
Cosmos 1892 Rocket 4.0 06:52:21 10° N 06:56:48 67° E 07:01:14 10° SSE
Okean 2 3.7 06:53:17 10° N 06:57:29 74° E 07:01:38 10° SSE
Meteor 1-29 3.3 06:56:51 10° SSE 07:00:11 68° ENE 07:03:33 10° N
Ariane Rocket 3.9 06:56:35 10° NNW 07:00:42 26° WNW 07:04:49 10° WSW
SL-16 R/B 3.9 07:01:24 10° WNW 07:02:55 11° NW 07:04:26 10° NNW
ATLAS CENTAUR Rocket 3.8 07:01:03 10° WSW 07:06:31 23° SSW 07:09:44 10° SSE
